Volver al catálogo

THORAD DELTA 1 DEB

ActivoLEO
NORAD 37148·DEBRIS·🇺🇸 United States

Lanzado Nov 15, 1974 desde Vandenberg Space Force Base

Loading…

Próximos Pases (próximas 24 horas)

TLE

ActualizadoSource: Space-Track

Época: Sep 14, 2026, 02:57 UTC

1 37148U 74089FH  26257.12319848  .00014684  00000-0  48509-2 0  9990
2 37148 101.6960 122.6242 0016022  96.0334  54.8342 14.38080239809453

Sigue THORAD DELTA 1 DEB en tiempo real con AllMySat

Download on the App Store